Overview Statistics Trail Chart Weather Telemetry Raw packets
 

This is the latest recevied weather packets stored in our database for station/object LKLN. If no packets are shown the sender has not sent any weather packets the latest 10 day(s).

<< 13 14 15 16 17 18 19 >>
Time Temp. Humidity Pressure Rain* Wind** Luminosity Snow
1788184882 22.78° C 49% 1016 hPa - - - -
1788183071 22.78° C 46% 1016 hPa - - - -
1788181272 22.22° C 53% 1016 hPa - - - -
1788179469 22.78° C 49% 1016 hPa - - - -
1788177673 22.78° C 46% 1016 hPa - - - -
1788175870 21.11° C 56% 1017 hPa - - - -
1788174071 21.11° C 64% 1017 hPa - - - -
1788172270 21.11° C 64% 1017 hPa - - - -
1788170471 20° C 72% 1017 hPa - - - -
1788168671 20° C 77% 1017 hPa - - - -
1788166873 18.89° C 82% 1017 hPa - - - -
1788165071 17.78° C 88% 1016 hPa - - - -
1788163265 17.22° C 93% 1016 hPa - - - -
1788161469 17.22° C 93% 1016 hPa - - - -
1788159677 16.11° C 100% 1016 hPa - - - -
1788157876 16.11° C 93% 1016 hPa - - - -
1788157386 16.11° C 93% 1016 hPa - - - -
1788156074 16.11° C 93% 1016 hPa - - - -
1788155944 16.11° C 93% 1016 hPa - - - -
1788155284 16.11° C 93% 1016 hPa - - - -
1788154984 15° C 100% 1016 hPa - - - -
1788154624 15° C 100% 1016 hPa - - - -
1788154270 16.11° C 93% 1016 hPa - - - -
1788153424 16.11° C 93% 1016 hPa - - - -
1788152472 16.11° C 87% 1016 hPa - - - -

* Rain since midnight (hover to see other rain measurements)
** Current wind speed in m/s (hover to see current wind gust speed)